RADIO ROSTO (RS15)

Last updated on Sun Jun 21 2026 00:03:20 GMT+0000 (Coordinated Universal Time)

1 23439U 94085A 26171.39747735 -.00000030 00000+0 35297-3 0 9991 2 23439 64.8186 298.0240 0156038 3.2812 356.9100 11.27583497296266
UTC large
Height (km)
Speed (km/s)
/
Latitude / Longitude
Inclination (degrees)
Orbital Period (minutes)
Azimuth
Elevation
Range (km)
Doppler Factor

Next 0 passes for location: London (51.5072 / 0.1276)

No passes found over London.
RADIO ROSTO (RS15)